• In Czech Republic
  • List of Countries
  • For 7 days
  • Water Temperature
  • Satellite Maps
  • Weather Map
  • Weather Widgets
  • user-avatar
    Login

    Hourly Weather Praha

    Today, 19 August, Sunday

    Time Temperature Precipitation Wind Pressure Humidity
    00:00 +22°C° 0 mm 1 mps 746 mmHg 77%
    01:00 +21°C° 0 mm 1 mps 747 mmHg 79%
    02:00 +21°C° 0.1 mm 1 mps 746 mmHg 80%
    03:00 +20°C° 0.1 mm 1 mps 746 mmHg 82%
    04:00 +20°C° 0.1 mm 1 mps 746 mmHg 83%
    05:00 +19°C° 0 mm 0 mps 746 mmHg 80%
    06:00 +20°C° 0 mm 0 mps 747 mmHg 77%
    07:00 +23°C° 0 mm 1 mps 747 mmHg 73%
    08:00 +25°C° 0 mm 1 mps 747 mmHg 66%
    09:00 +27°C° 0 mm 1 mps 747 mmHg 60%
    10:00 +29°C° 0 mm 1 mps 747 mmHg 54%
    11:00 +30°C° 0 mm 1 mps 746 mmHg 49%
    12:00 +31°C° 0 mm 1 mps 746 mmHg 45%
    13:00 +33°C° 0 mm 1 mps 746 mmHg 40%
    14:00 +32°C° 0 mm 1 mps 746 mmHg 40%
    15:00 +32°C° 0 mm 1 mps 745 mmHg 40%
    16:00 +32°C° 0 mm 1 mps 745 mmHg 40%
    17:00 +30°C° 0 mm 1 mps 745 mmHg 44%
    18:00 +29°C° 0 mm 1 mps 745 mmHg 49%
    19:00 +27°C° 0 mm 1 mps 744 mmHg 53%
    20:00 +27°C° 0 mm 1 mps 745 mmHg 55%
    21:00 +26°C° 0 mm 1 mps 745 mmHg 58%
    22:00 +25°C° 0 mm 1 mps 745 mmHg 60%
    23:00 +25°C° 0 mm 1 mps 745 mmHg 61%

    Tomorrow, 20 August, Monday

    Time Temperature Precipitation Wind Pressure Humidity
    00:00 +24°C° 0 mm 1 mps 745 mmHg 63%
    01:00 +24°C° 0 mm 1 mps 745 mmHg 65%
    02:00 +23°C° 0 mm 1 mps 744 mmHg 66%
    03:00 +23°C° 0 mm 1 mps 744 mmHg 68%
    04:00 +22°C° 0 mm 1 mps 744 mmHg 70%
    05:00 +23°C° 0 mm 1 mps 744 mmHg 68%
    06:00 +23°C° 0 mm 1 mps 745 mmHg 66%
    07:00 +24°C° 0 mm 1 mps 745 mmHg 65%
    08:00 +26°C° 0 mm 2 mps 745 mmHg 58%
    09:00 +27°C° 0 mm 2 mps 745 mmHg 51%
    10:00 +29°C° 0 mm 3 mps 745 mmHg 45%
    11:00 +30°C° 0 mm 3 mps 745 mmHg 43%
    12:00 +30°C° 0 mm 3 mps 745 mmHg 41%
    13:00 +32°C° 0 mm 4 mps 744 mmHg 39%
    14:00 +32°C° 0 mm 4 mps 744 mmHg 40%
    15:00 +32°C° 0 mm 4 mps 744 mmHg 41%
    16:00 +32°C° 0 mm 4 mps 744 mmHg 42%
    17:00 +29°C° 0 mm 3 mps 744 mmHg 50%
    18:00 +27°C° 0 mm 3 mps 744 mmHg 57%
    19:00 +25°C° 0 mm 3 mps 744 mmHg 64%
    20:00 +24°C° 0 mm 2 mps 744 mmHg 69%
    21:00 +23°C° 0 mm 2 mps 745 mmHg 73%
    22:00 +22°C° 0 mm 1 mps 745 mmHg 77%
    23:00 +22°C° 0 mm 1 mps 745 mmHg 79%

    Day after tomorrow, 21 August, Tuesday

    Time Temperature Precipitation Wind Pressure Humidity
    00:00 +21°C° 0 mm 1 mps 745 mmHg 81%
    01:00 +21°C° 0 mm 1 mps 745 mmHg 84%
    02:00 +20°C° 0 mm 1 mps 746 mmHg 85%
    03:00 +20°C° 0 mm 1 mps 746 mmHg 87%
    04:00 +20°C° 0 mm 1 mps 746 mmHg 89%
    05:00 +20°C° 0 mm 1 mps 746 mmHg 85%
    06:00 +21°C° 0 mm 1 mps 747 mmHg 82%
    07:00 +22°C° 0 mm 1 mps 747 mmHg 79%
    08:00 +23°C° 0 mm 2 mps 747 mmHg 74%
    09:00 +24°C° 0 mm 2 mps 747 mmHg 68%
    10:00 +25°C° 0 mm 2 mps 747 mmHg 63%
    11:00 +26°C° 0.1 mm 2 mps 747 mmHg 60%
    12:00 +27°C° 0.1 mm 2 mps 747 mmHg 57%
    13:00 +27°C° 0.1 mm 2 mps 747 mmHg 54%
    14:00 +28°C° 0 mm 2 mps 746 mmHg 53%
    15:00 +28°C° 0 mm 3 mps 746 mmHg 52%
    16:00 +28°C° 0 mm 3 mps 746 mmHg 52%
    17:00 +26°C° 0 mm 2 mps 746 mmHg 56%
    18:00 +25°C° 0 mm 2 mps 746 mmHg 61%
    19:00 +24°C° 0 mm 2 mps 746 mmHg 66%
    20:00 +23°C° 0 mm 2 mps 746 mmHg 69%
    21:00 +21°C° 0 mm 2 mps 746 mmHg 71%
    22:00 +20°C° 0 mm 2 mps 746 mmHg 74%
    23:00 +21°C° 0 mm 1 mps 746 mmHg 76%

    22 August, Wednesday

    Time Temperature Precipitation Wind Pressure Humidity
    00:00 +20°C° 0 mm 1 mps 746 mmHg 77%
    01:00 +20°C° 0 mm 1 mps 746 mmHg 79%
    02:00 +20°C° 0 mm 1 mps 746 mmHg 79%
    03:00 +20°C° 0 mm 1 mps 746 mmHg 80%
    04:00 +19°C° 0 mm 1 mps 746 mmHg 80%
    05:00 +20°C° 0 mm 1 mps 746 mmHg 78%
    06:00 +21°C° 0 mm 1 mps 746 mmHg 75%
    07:00 +21°C° 0 mm 1 mps 746 mmHg 72%
    08:00 +23°C° 0 mm 2 mps 746 mmHg 66%
    09:00 +25°C° 0 mm 2 mps 746 mmHg 60%
    10:00 +27°C° 0 mm 2 mps 746 mmHg 54%
    11:00 +28°C° 0 mm 2 mps 745 mmHg 50%
    12:00 +29°C° 0 mm 2 mps 745 mmHg 47%
    13:00 +30°C° 0 mm 2 mps 745 mmHg 44%
    14:00 +30°C° 0 mm 2 mps 744 mmHg 44%
    15:00 +31°C° 0 mm 2 mps 744 mmHg 43%
    16:00 +31°C° 0 mm 2 mps 744 mmHg 42%
    17:00 +29°C° 0 mm 2 mps 744 mmHg 48%
    18:00 +28°C° 0 mm 1 mps 743 mmHg 53%
    19:00 +26°C° 0 mm 1 mps 743 mmHg 59%
    20:00 +25°C° 0 mm 1 mps 743 mmHg 62%
    21:00 +24°C° 0 mm 1 mps 744 mmHg 65%
    22:00 +23°C° 0 mm 1 mps 744 mmHg 68%
    23:00 +23°C° 0 mm 1 mps 743 mmHg 70%

    23 August, Thursday

    Time Temperature Precipitation Wind Pressure Humidity
    00:00 +22°C° 0 mm 1 mps 743 mmHg 73%
    01:00 +22°C° 0 mm 1 mps 743 mmHg 75%
    02:00 +22°C° 0 mm 1 mps 743 mmHg 76%
    03:00 +21°C° 0 mm 1 mps 743 mmHg 77%
    04:00 +21°C° 0 mm 1 mps 743 mmHg 78%
    05:00 +22°C° 0.1 mm 1 mps 743 mmHg 76%
    06:00 +23°C° 0.1 mm 1 mps 743 mmHg 73%
    07:00 +23°C° 0.1 mm 1 mps 743 mmHg 70%
    08:00 +25°C° 0.1 mm 1 mps 743 mmHg 65%
    09:00 +27°C° 0.1 mm 1 mps 743 mmHg 59%
    10:00 +29°C° 0.1 mm 1 mps 743 mmHg 54%
    11:00 +30°C° 0 mm 1 mps 742 mmHg 51%
    12:00 +31°C° 0 mm 2 mps 742 mmHg 47%
    13:00 +32°C° 0 mm 2 mps 741 mmHg 44%
    14:00 +32°C° 0.1 mm 2 mps 741 mmHg 45%
    15:00 +31°C° 0.1 mm 2 mps 741 mmHg 46%
    16:00 +31°C° 0.1 mm 2 mps 740 mmHg 47%
    17:00 +30°C° 0.2 mm 1 mps 740 mmHg 53%
    18:00 +28°C° 0.2 mm 1 mps 740 mmHg 59%
    19:00 +26°C° 0.2 mm 1 mps 740 mmHg 65%
    20:00 +26°C° 1 mm 1 mps 740 mmHg 68%
    21:00 +25°C° 1 mm 1 mps 740 mmHg 72%
    22:00 +24°C° 1 mm 1 mps 740 mmHg 75%
    23:00 +23°C° 0.1 mm 1 mps 739 mmHg 78%

    24 August, Friday

    Time Temperature Precipitation Wind Pressure Humidity
    00:00 +23°C° 0.1 mm 1 mps 739 mmHg 80%
    01:00 +22°C° 0.1 mm 1 mps 739 mmHg 82%
    02:00 +22°C° 0 mm 1 mps 739 mmHg 83%
    03:00 +22°C° 0 mm 1 mps 738 mmHg 84%
    04:00 +21°C° 0 mm 1 mps 738 mmHg 86%
    05:00 +22°C° 0.2 mm 1 mps 738 mmHg 84%
    06:00 +22°C° 0.2 mm 1 mps 738 mmHg 83%
    07:00 +23°C° 0.2 mm 1 mps 738 mmHg 81%
    08:00 +25°C° 0.5 mm 2 mps 738 mmHg 74%
    09:00 +26°C° 0.5 mm 2 mps 738 mmHg 67%
    10:00 +28°C° 0.5 mm 2 mps 738 mmHg 60%
    11:00 +28°C° 0.2 mm 2 mps 737 mmHg 55%
    12:00 +29°C° 0.2 mm 2 mps 737 mmHg 50%
    13:00 +30°C° 0.2 mm 2 mps 737 mmHg 46%
    14:00 +30°C° 0.1 mm 2 mps 736 mmHg 47%
    15:00 +30°C° 0.1 mm 2 mps 736 mmHg 49%
    16:00 +29°C° 0.1 mm 2 mps 736 mmHg 50%
    17:00 +27°C° 1 mm 3 mps 736 mmHg 60%
    18:00 +25°C° 1 mm 3 mps 736 mmHg 70%
    19:00 +22°C° 1 mm 4 mps 736 mmHg 80%
    20:00 +21°C° 0.5 mm 3 mps 736 mmHg 84%
    21:00 +20°C° 0.5 mm 3 mps 737 mmHg 87%
    22:00 +20°C° 0.5 mm 3 mps 737 mmHg 90%
    23:00 +19°C° 1 mm 3 mps 737 mmHg 91%
    Show more